This is the latest recevied weather packets stored in our database for station/object DB0HOL-4. If no packets are shown the sender has not sent any weather packets the latest 10 day(s).
| Time | Temp. | Humidity | Pressure | Rain* | Wind** | Luminosity | Snow |
|---|---|---|---|---|---|---|---|
| 1777818397 | 21.67° C | 41% | 1008.1 hPa | 0 mm | - | 563 W/m² | - |
| 1777816597 | 21.11° C | 45% | 1008.4 hPa | 0 mm | - | 663 W/m² | - |
| 1777814797 | 20.56° C | 43% | 1008.4 hPa | 0 mm | - | 284 W/m² | - |
| 1777812997 | 20.56° C | 46% | 1008.8 hPa | 0 mm | - | 264 W/m² | - |
| 1777811197 | 20.56° C | 43% | 1008.8 hPa | 0 mm | - | 537 W/m² | - |
| 1777809397 | 20.56° C | 43% | 1009.4 hPa | 0 mm | - | 647 W/m² | - |
| 1777807597 | 20° C | 44% | 1009.4 hPa | 0 mm | - | 640 W/m² | - |
| 1777805797 | 18.89° C | 51% | 1009.8 hPa | 0 mm | - | 670 W/m² | - |
| 1777803997 | 18.89° C | 54% | 1009.8 hPa | 0 mm | - | 647 W/m² | - |
| 1777802197 | 18.33° C | 58% | 1010.1 hPa | 0 mm | - | 570 W/m² | - |
| 1777800397 | 17.78° C | 63% | 1010.4 hPa | 0 mm | - | 615 W/m² | - |
| 1777798597 | 16.67° C | 60% | 1010.1 hPa | 0 mm | - | 310 W/m² | - |
| 1777796797 | 15.56° C | 69% | 1009.8 hPa | 0 mm | - | 178 W/m² | - |
| 1777794997 | 16.11° C | 65% | 1010.4 hPa | 0 mm | - | 316 W/m² | - |
| 1777793197 | 15° C | 70% | 1010.1 hPa | 0 mm | - | 117 W/m² | - |
| 1777791397 | 14.44° C | 67% | 1010.1 hPa | 0 mm | - | 108 W/m² | - |
| 1777789597 | 13.89° C | 69% | 1010.1 hPa | 0 mm | - | 946 W/m² | - |
| 1777787796 | 13.89° C | 68% | 1010.1 hPa | 0 mm | - | 537 W/m² | - |
| 1777785997 | 13.89° C | 70% | 1010.1 hPa | 0 mm | - | 372 W/m² | - |
| 1777784197 | 13.89° C | 78% | 1010.8 hPa | 0 mm | - | 0 W/m² | - |
| 1777782398 | 13.89° C | 78% | 1010.8 hPa | 0 mm | - | 0 W/m² | - |
| 1777780597 | 13.89° C | 78% | 1010.8 hPa | 0 mm | - | 0 W/m² | - |
| 1777778797 | 13.89° C | 78% | 1010.8 hPa | 0 mm | - | 0 W/m² | - |
| 1777776996 | 14.44° C | 77% | 1010.8 hPa | 0 mm | - | 0 W/m² | - |
| 1777775197 | 15° C | 76% | 1011.1 hPa | 0 mm | - | 0 W/m² | - |
* Rain latest hour (hover to see other rain measurements)
** Current wind speed in m/s (hover to see current wind gust speed)